Weather History for Freeport, IL

Change the Weather History Date:

Friday, January 27, 2012

  Actual Average Record
Temperature  
Mean Temperature 28 °F -  
Max Temperature 34 °F 26 °F 60 °F (2002)
Min Temperature 22 °F 6 °F -17 °F (1982)
Degree Days  
Heating Degree Days 37    
Moisture  
Dew Point 24 °F    
Average Humidity 82    
Maximum Humidity 87    
Minimum Humidity 71    
Precipitation  
Precipitation 0.00 in - - ()
Sea Level Pressure  
Sea Level Pressure 29.88 in    
Wind  
Wind Speed 8 mph (WSW)    
Max Wind Speed 12 mph    
Max Gust Speed 18 mph    
Visibility 10 miles    
Events Snow    
Averages and records for this station are not official NWS values.
T = Trace of Precipitation, MM = Missing Value Source: NWS Daily Summary

Daily Weather History Graph

Daily Weather History Graph

Search for Another Location

Airport:

Trip Planner

Search our weather history database for the weather conditions in past years. The results will help you decide how hot, cold, wet, or windy it might be!

Date:

Astronomy

Jan. 27, 2012 Rise Set
Actual Time 7:16 AM CST 5:05 PM CST
Civil Twilight 6:46 AM CST 5:35 PM CST
Nautical Twilight 6:12 AM CST 6:09 PM CST
Astronomical Twilight 5:39 AM CST 6:42 PM CST
Moon 9:05 AM CST (1/27) 10:03 PM CST (1/27)
Length of Visible Light 10h 49m
Length of Day
9h 48m
Waxing Crescent, 20% of the Moon is Illuminated
Jan 27
Waxing Crescent
Jan 30
First Quarter
Feb 7
Full
Feb 14
Last Quarter
Feb 21
New

Hourly Weather History & Observations

Time (CST) Temp. Windchill Dew Point Humidity Pressure Visibility Wind Dir Wind Speed Gust Speed Precip Events Conditions
12:15 AM 32.0 °F 24.2 °F 28.4 °F 87% 29.70 in 10.0 mi WNW 9.2 mph - N/A   Clear
12:35 AM 32.0 °F 23.0 °F 28.4 °F 87% 29.71 in 10.0 mi WNW 11.5 mph - N/A   Clear
12:55 AM 32.0 °F 24.8 °F 28.4 °F 87% 29.71 in 10.0 mi WNW 8.1 mph - N/A   Mostly Cloudy
1:15 AM 32.0 °F 24.8 °F 28.2 °F 86% 29.71 in 10.0 mi WNW 8.1 mph - N/A   Overcast
1:35 AM 32.0 °F 25.6 °F 28.0 °F 85% 29.72 in 10.0 mi West 6.9 mph - N/A   Overcast
1:55 AM 32.0 °F 26.4 °F 28.0 °F 85% 29.73 in 10.0 mi West 5.8 mph - N/A   Overcast
2:15 AM 29.3 °F 21.5 °F 25.5 °F 86% 29.75 in 10.0 mi West 8.1 mph - N/A   Mostly Cloudy
2:35 AM 29.3 °F 22.3 °F 25.3 °F 85% 29.77 in 10.0 mi West 6.9 mph - N/A   Overcast
2:55 AM 28.8 °F 20.9 °F 25.0 °F 86% 29.79 in 10.0 mi WSW 8.1 mph - N/A   Overcast
3:15 AM 27.0 °F 18.7 °F 23.2 °F 86% 29.80 in 10.0 mi WSW 8.1 mph - N/A   Overcast
3:35 AM 27.0 °F 18.0 °F 23.0 °F 85% 29.80 in 10.0 mi West 9.2 mph - N/A   Scattered Clouds
3:55 AM 27.0 °F 18.0 °F 22.5 °F 83% 29.81 in 10.0 mi West 9.2 mph - N/A   Clear
4:15 AM 26.2 °F 17.8 °F 21.7 °F 83% 29.81 in 10.0 mi WNW 8.1 mph - N/A   Clear
4:35 AM 24.6 °F 17.7 °F 20.3 °F 84% 29.82 in 10.0 mi WNW 5.8 mph - N/A   Clear
4:55 AM 24.4 °F 15.6 °F 20.5 °F 85% 29.82 in 10.0 mi West 8.1 mph - N/A   Clear
5:15 AM 24.8 °F 16.1 °F 20.5 °F 84% 29.83 in 10.0 mi West 8.1 mph - N/A   Clear
5:35 AM 24.4 °F 15.6 °F 20.3 °F 84% 29.85 in 10.0 mi West 8.1 mph - N/A   Clear
5:55 AM 23.0 °F 14.7 °F 19.4 °F 86% 29.86 in 10.0 mi West 6.9 mph - N/A   Clear
6:15 AM 22.1 °F 13.7 °F 18.9 °F 87% 29.87 in 10.0 mi WSW 6.9 mph - N/A   Clear
6:35 AM 22.1 °F 14.7 °F 18.9 °F 87% 29.88 in 10.0 mi WSW 5.8 mph - N/A   Clear
6:55 AM 22.6 °F 14.3 °F 19.4 °F 87% 29.89 in 10.0 mi West 6.9 mph - N/A   Clear
7:15 AM 22.8 °F 16.7 °F 19.4 °F 87% 29.89 in 10.0 mi West 4.6 mph - N/A   Clear
7:35 AM 23.0 °F 14.7 °F 19.8 °F 87% 29.90 in 10.0 mi West 6.9 mph - N/A   Clear
7:55 AM 22.5 °F 15.1 °F 18.9 °F 86% 29.91 in 10.0 mi West 5.8 mph - N/A   Clear
8:15 AM 23.0 °F 17.0 °F 19.4 °F 86% 29.91 in 10.0 mi West 4.6 mph - N/A   Clear
8:35 AM 23.5 °F 17.6 °F 19.6 °F 85% 29.91 in 10.0 mi WSW 4.6 mph - N/A   Clear
8:55 AM 24.6 °F 18.8 °F 20.3 °F 84% 29.91 in 10.0 mi West 4.6 mph - N/A   Clear
9:15 AM 24.8 °F 19.1 °F 21.2 °F 86% 29.93 in 10.0 mi WSW 4.6 mph - N/A   Clear
9:35 AM 27.0 °F 19.5 °F 22.1 °F 82% 29.94 in 10.0 mi WSW 6.9 mph - N/A   Clear
9:55 AM 27.0 °F 21.6 °F 22.1 °F 82% 29.94 in 10.0 mi WSW 4.6 mph - N/A   Clear
10:15 AM 29.3 °F 24.3 °F 24.1 °F 81% 29.95 in 10.0 mi WSW 4.6 mph - N/A   Clear
10:35 AM 29.3 °F 23.2 °F 23.7 °F 80% 29.96 in 10.0 mi SW 5.8 mph - N/A   Clear
10:55 AM 31.8 °F 26.2 °F 25.2 °F 76% 29.96 in 10.0 mi SW 5.8 mph - N/A   Clear
11:15 AM 32.0 °F 27.5 °F 24.6 °F 74% 29.96 in 10.0 mi WSW 4.6 mph - N/A   Clear
11:35 AM 32.0 °F 27.5 °F 24.6 °F 74% 29.95 in 10.0 mi WSW 4.6 mph - N/A   Clear
11:55 AM 32.4 °F 26.9 °F 24.6 °F 73% 29.95 in 10.0 mi SW 5.8 mph - N/A   Clear
12:15 PM 32.7 °F 27.3 °F 25.2 °F 74% 29.94 in 10.0 mi SW 5.8 mph - N/A   Clear
12:35 PM 32.9 °F 28.5 °F 25.3 °F 74% 29.93 in 10.0 mi SW 4.6 mph - N/A   Scattered Clouds
12:55 PM 33.1 °F 26.9 °F 27.3 °F 79% 29.93 in 10.0 mi SSW 6.9 mph - N/A   Scattered Clouds
1:15 PM 32.9 °F 28.5 °F 27.1 °F 79% 29.91 in 10.0 mi SSW 4.6 mph - N/A   Mostly Cloudy
1:35 PM 34.2 °F 29.0 °F 26.4 °F 73% 29.91 in 10.0 mi SSW 5.8 mph - N/A   Scattered Clouds
1:55 PM 34.2 °F 26.8 °F 26.2 °F 73% 29.91 in 10.0 mi SSW 9.2 mph - N/A   Scattered Clouds
2:15 PM 34.2 °F 27.5 °F 25.7 °F 71% 29.91 in 10.0 mi SSW 8.1 mph - N/A   Mostly Cloudy
2:35 PM 34.2 °F 26.8 °F 26.4 °F 73% 29.91 in 10.0 mi SSW 9.2 mph - N/A   Overcast
2:55 PM 34.2 °F 26.8 °F 26.6 °F 74% 29.92 in 10.0 mi SSW 9.2 mph - N/A   Overcast
3:15 PM 34.2 °F 27.5 °F 27.0 °F 75% 29.94 in 10.0 mi SW 8.1 mph - N/A   Overcast
3:35 PM 34.2 °F 26.2 °F 27.0 °F 75% 29.94 in 10.0 mi SW 10.4 mph - N/A   Overcast
3:55 PM 33.6 °F 26.2 °F 27.3 °F 78% 29.95 in 10.0 mi SW 9.2 mph - N/A   Overcast
4:15 PM 33.1 °F 26.1 °F 26.4 °F 77% 29.95 in 10.0 mi SW 8.1 mph - N/A   Overcast
4:35 PM 32.9 °F 25.9 °F 26.6 °F 78% 29.96 in 10.0 mi SW 8.1 mph - N/A   Overcast
4:55 PM 32.9 °F 25.9 °F 27.1 °F 79% 29.96 in 10.0 mi SSW 8.1 mph - N/A   Overcast
5:15 PM 32.0 °F 24.2 °F 28.4 °F 87% 29.96 in 10.0 mi SSW 9.2 mph - N/A   Overcast
5:35 PM 34.2 °F 26.8 °F 28.0 °F 78% 29.96 in 10.0 mi SW 9.2 mph - N/A   Overcast
5:55 PM 33.3 °F 24.6 °F 28.0 °F 81% 29.96 in 10.0 mi SW 11.5 mph 18.4 mph N/A   Overcast
6:15 PM 32.0 °F 23.0 °F 28.4 °F 87% 29.97 in 7.0 mi SW 11.5 mph 17.3 mph N/A Snow Light Snow
6:35 PM 32.0 °F 23.6 °F 29.3 °F 90% 29.96 in 4.0 mi SW 10.4 mph - N/A Snow Light Snow
6:55 PM 32.0 °F 25.6 °F 29.3 °F 90% 29.95 in 10.0 mi SSW 6.9 mph - N/A   Overcast
7:15 PM 32.0 °F 24.8 °F 29.3 °F 90% 29.93 in 10.0 mi SSE 8.1 mph - N/A   Overcast
7:35 PM 32.0 °F 22.5 °F 29.7 °F 91% 29.93 in 10.0 mi South 12.7 mph - N/A   Overcast
7:55 PM 32.0 °F 21.6 °F 29.3 °F 90% 29.92 in 10.0 mi South 15.0 mph 20.7 mph N/A   Overcast
8:15 PM 32.0 °F 21.6 °F 29.1 °F 89% 29.92 in 10.0 mi South 15.0 mph - N/A   Overcast
8:35 PM 32.0 °F 22.1 °F 29.3 °F 90% 29.92 in 10.0 mi SSW 13.8 mph 19.6 mph N/A   Overcast
8:55 PM 32.0 °F 22.1 °F 29.1 °F 89% 29.91 in 10.0 mi South 13.8 mph - N/A   Overcast
9:35 PM 32.0 °F 22.1 °F 28.4 °F 87% 29.89 in 10.0 mi South 13.8 mph 19.6 mph N/A Snow Light Snow
9:55 PM 32.0 °F 20.8 °F 29.1 °F 89% 29.88 in 3.0 mi South 17.3 mph 23.0 mph N/A Snow Light Snow
10:15 PM 32.0 °F 20.8 °F 29.3 °F 90% 29.88 in 2.5 mi South 17.3 mph - N/A Snow Light Snow
10:35 PM 32.0 °F 21.2 °F 29.7 °F 91% 29.88 in 2.0 mi SSW 16.1 mph - N/A Snow Light Snow
10:55 PM 32.0 °F 21.6 °F 29.8 °F 92% 29.88 in 1.5 mi SSW 15.0 mph - N/A Snow Light Snow
11:15 PM 32.0 °F 21.2 °F 29.8 °F 92% 29.87 in 1.5 mi SSW 16.1 mph 21.9 mph N/A Snow Light Snow
11:35 PM 32.0 °F 21.2 °F 29.8 °F 92% 29.86 in 1.5 mi SSW 16.1 mph 20.7 mph N/A Snow Light Snow
11:55 PM 32.0 °F 21.6 °F 29.8 °F 92% 29.86 in 1.8 mi SSW 15.0 mph - N/A Snow Light Snow